K6BPM Weather Reports


Display with metric or nautical units.
time (UTC)temp
F
wind
direction
speed
MPH
gust
MPH
rain 1hr
in
rain 24hr
in
rain mn
in
humidity
%
barometer
mb
20260506132018 54 0.0 0.0 0.00 0.00 0.00 27 1016.2
20260506131017 54 0.0 0.0 0.00 0.00 0.00 27 1016.1
20260506130018 54 0.0 0.0 0.00 0.00 0.00 27 1016.1
20260506125017 54 0.0 0.0 0.00 0.00 0.00 27 1015.9
20260506124017 54 0.0 0.0 0.00 0.00 0.00 27 1015.9
20260506123039 54 0.0 0.0 0.00 0.00 0.00 27 1015.9
20260506122019 54 0.0 0.0 0.00 0.00 0.00 27 1015.9
20260506121017 54 0.0 0.0 0.00 0.00 0.00 27 1015.9
20260506120037 54 0.0 0.0 0.00 0.00 0.00 26 1015.9
20260506115018 54 0.0 0.0 0.00 0.00 0.00 26 1016.0
20260506114018 54 0.0 0.0 0.00 0.00 0.00 26 1016.0
20260506113017 54 0.0 0.0 0.00 0.00 0.00 26 1015.9
20260506112037 54 0.0 0.0 0.00 0.00 0.00 26 1016.0
20260506111037 54 0.0 0.0 0.00 0.00 0.00 26 1015.9
20260506110017 54 0.0 0.0 0.00 0.00 0.00 26 1015.8
20260506105019 54 0.0 0.0 0.00 0.00 0.00 26 1015.7
20260506104017 54 0.0 0.0 0.00 0.00 0.00 26 1015.6
20260506103017 54 0.0 0.0 0.00 0.00 0.00 26 1015.5
20260506102017 54 0.0 0.0 0.00 0.00 0.00 26 1015.5
20260506101057 54 0.0 0.0 0.00 0.00 0.00 26 1015.5
20260506100017 54 0.0 0.0 0.00 0.00 0.00 26 1015.6
20260506095057 54 0.0 0.0 0.00 0.00 0.00 26 1015.5
20260506094017 54 0.0 0.0 0.00 0.00 0.00 26 1015.6
20260506093015 55 0.0 0.0 0.00 0.00 0.00 26 1015.5
20260506092016 55 0.0 0.0 0.00 0.00 0.00 26 1015.6
20260506091017 55 0.0 0.0 0.00 0.00 0.00 26 1015.6
20260506090020 55 0.0 0.0 0.00 0.00 0.00 26 1015.7
20260506085020 55 0.0 0.0 0.00 0.00 0.00 26 1015.8
20260506084026 55 0.0 0.0 0.00 0.00 0.00 26 1016.0
20260506083021 55 0.0 0.0 0.00 0.00 0.00 26 1016.0
20260506082026 55 0.0 0.0 0.00 0.00 0.00 26 1016.1
20260506081025 55 0.0 0.0 0.00 0.00 0.00 26 1016.0
20260506073018 56 0.0 0.0 0.00 0.00 0.00 27 1015.9
20260506072017 56 0.0 0.0 0.00 0.00 0.00 27 1015.7
20260506071018 56 0.0 0.0 0.00 0.00 0.00 27 1015.5
20260506062019 58 0.0 0.0 0.00 0.00 0.00 30 1015.1
20260506061059 58 0.0 0.0 0.00 0.00 0.00 31 1015.0
20260506051017 60 0.0 0.0 0.00 0.00 0.00 45 1014.6
20260506045038 61 0.0 0.0 0.00 0.00 0.00 56 1014.3
20260506044017 61 0.0 0.0 0.00 0.00 0.00 59 1014.1
20260506043018 61 0.0 0.0 0.00 0.00 0.00 58 1014.1
20260506042018 61 0.0 0.0 0.00 0.00 0.00 58 1013.9
20260506041017 62 0.0 0.0 0.00 0.00 0.00 58 1013.9
20260506040017 62 0.0 0.0 0.00 0.00 0.00 59 1013.6
20260506035037 62 0.0 0.0 0.00 0.00 0.00 58 1013.4
20260506034017 62 0.0 0.0 0.00 0.00 0.00 57 1013.3
20260506033037 63 0.0 0.0 0.00 0.00 0.00 57 1013.2
20260506032038 62 0.0 2.0 0.00 0.00 0.00 58 1013.1
20260506031017 62 0.0 0.0 0.00 0.00 0.00 56 1012.9
20260506030038 63 0.0 0.0 0.00 0.00 0.00 55 1012.8
20260506025038 63 0.0 0.0 0.00 0.00 0.00 56 1012.6
20260506024017 63 0.0 0.0 0.00 0.00 0.00 57 1012.4
20260506023018 64 0.0 0.0 0.00 0.00 0.00 55 1012.3
20260506022017 64 0.0 0.0 0.00 0.00 0.00 56 1012.4
20260506021037 64 0.0 0.0 0.00 0.00 0.00 58 1012.3
20260506020018 65 0.0 0.0 0.00 0.00 0.00 59 1012.2
20260506015018 67 0.0 0.0 0.00 0.00 0.00 59 1012.2
20260506014018 67 0.0 0.0 0.00 0.00 0.00 60 1012.2
20260506013058 67 0.0 0.0 0.00 0.00 0.00 60 1012.1
20260506012118 67 0.0 0.0 0.00 0.00 0.00 60 1012.1
20260506011018 67 0.0 0.0 0.00 0.00 0.00 60 1012.2
20260506010017 67 0.0 0.0 0.00 0.00 0.00 60 1012.1
20260506005017 68 0.0 0.0 0.00 0.00 0.00 60 1012.1
20260506004017 68 0.0 0.0 0.00 0.00 0.00 60 1012.0
20260506003017 67 0.0 0.0 0.00 0.00 0.00 61 1012.1
20260506002017 67 0.0 0.0 0.00 0.00 0.00 61 1012.0
20260506001017 68 0.0 0.0 0.00 0.00 0.00 61 1011.9
20260506000017 68 0.0 2.0 0.00 0.00 0.00 61 1011.8
20260505235018 68 23 1.0 2.0 0.00 0.00 0.00 61 1011.8
20260505234017 69 0.0 2.0 0.00 0.00 0.00 61 1011.8
20260505233037 70 0.0 0.0 0.00 0.00 0.00 60 1011.9
20260505232017 71 0.0 1.0 0.00 0.00 0.00 58 1011.8
20260505231017 73 23 1.0 4.0 0.00 0.00 0.00 56 1011.8
20260505230037 73 293 1.0 5.0 0.00 0.00 0.00 54 1012.0
20260505225016 73 270 1.0 6.0 0.00 0.00 0.00 55 1011.9
20260505224016 72 0.0 4.0 0.00 0.00 0.00 57 1012.0
20260505223037 70 270 1.0 5.0 0.00 0.00 0.00 58 1012.0
20260505222017 69 0.0 2.0 0.00 0.00 0.00 60 1012.2
20260505221016 68 0.0 2.0 0.00 0.00 0.00 60 1012.1
20260505220016 68 0.0 2.0 0.00 0.00 0.00 60 1012.3
20260505215037 68 0.0 2.0 0.00 0.00 0.00 60 1012.4
20260505214017 68 0.0 4.0 0.00 0.00 0.00 60 1012.5
20260505213017 69 0.0 4.0 0.00 0.00 0.00 60 1012.6
20260505212016 68 0.0 2.0 0.00 0.00 0.00 60 1012.7
20260505211016 68 0.0 2.0 0.00 0.00 0.00 61 1012.8
20260505210018 67 0.0 2.0 0.00 0.00 0.00 61 1012.8
20260505205016 67 0.0 2.0 0.00 0.00 0.00 61 1012.9
20260505204016 67 0.0 1.0 0.00 0.00 0.00 60 1012.9
20260505203016 67 0.0 2.0 0.00 0.00 0.00 59 1012.9
20260505202017 68 270 1.0 4.0 0.00 0.00 0.00 59 1013.0
20260505201016 68 0.0 4.0 0.00 0.00 0.00 60 1013.0
20260505200017 68 0.0 2.0 0.00 0.00 0.00 60 1013.2
20260505195037 69 0.0 4.0 0.00 0.00 0.00 59 1013.2